Home > Weather > Besançon > Past weeks

Flag for France Past Weather in Besançon, Franche-Comté, France — Yesterday and Last 2 Weeks

Now
66 °F

Clear.


Feels Like: 66 °F
Forecast: 62 / 89 °F
Wind: 5 mph from East

Location: Dole Tavaux

Current Time: Aug 26, 2016 at 2:01:12 AM

Latest Report: Aug 26, 2016 at 1:30 AM


Visibility: 10 mi

Pressure: 30.01 "Hg

Humidity: 94%

Dew Point: 64 °F

Location of BesançonLocation

Past Weather in Besançon — Graph

°F

Besançon Temperature Yesterday

Maximum temperature yesterday: 91 °F (at 4:00 PM)
Minimum temperature yesterday: 59 °F (at 6:00 AM)
Average temperature yesterday: 76 °F

High & Low Weather Summary for the Past Weeks

 TemperatureHumidityPressure
High91 °F (Aug 25, 4:00 PM)100% (Aug 13, 4:30 AM)30.39 "Hg (Aug 13, 4:30 AM)
Low48 °F (Aug 11, 6:30 AM)26% (Aug 15, 5:30 PM)29.80 "Hg (Aug 17, 5:30 PM)
Average69 °F71%30.10 "Hg
* Reported Aug 11 1:00 AM — Aug 26 1:00 AM, Besançon, Weather by CustomWeather, © 2016

Note: Actual official high and low records may vary slightly from our data, if they occured in-between our weather recording intervals... More about our weather records

Advertising

Besançon Weather History for the Previous 24 Hours

Scroll right to see more
 ConditionsComfort  
Time TempWeatherWind HumidityBarometerVisibility
1:00 AM
Fri, Aug 26
68 °FClear.5 mph94%30.01 "Hg10 mi
12:30 AM70 °FClear.5 mph94%30.01 "Hg10 mi
12:00 AM68 °FClear.5 mph94%30.01 "Hg10 mi
11:30 PM
Thu, Aug 25
70 °FClear.3 mph88%30.01 "Hg10 mi
11:00 PM72 °FClear.3 mph83%30.01 "Hg10 mi
10:30 PM73 °FClear.3 mph83%30.01 "Hg10 mi
10:00 PM75 °FSunny.2 mph74%30.01 "Hg10 mi
9:30 PM77 °FSunny.3 mph69%30.01 "Hg10 mi
9:00 PM79 °FSunny.5 mph61%29.98 "Hg10 mi
8:30 PM84 °FSunny.3 mph51%29.98 "Hg10 mi
8:00 PM86 °FSunny.3 mph49%29.98 "Hg10 mi
7:30 PM90 °FPassing clouds.5 mph43%29.98 "HgN/A
7:00 PM90 °FPassing clouds.6 mph41%29.98 "HgN/A
6:30 PM91 °FPassing clouds.6 mph36%29.98 "HgN/A
6:00 PM91 °FPassing clouds.6 mph34%29.98 "HgN/A
5:30 PM91 °FPassing clouds.7 mph36%29.98 "HgN/A
5:00 PM91 °FPassing clouds.8 mph36%30.01 "HgN/A
4:30 PM91 °FPassing clouds.8 mph34%30.01 "HgN/A
4:00 PM91 °FPassing clouds.8 mph34%30.01 "HgN/A
3:30 PM90 °FPassing clouds.8 mph36%30.01 "HgN/A
3:00 PM90 °FPassing clouds.9 mph36%30.01 "HgN/A
2:30 PM90 °FPassing clouds.8 mph36%30.04 "HgN/A
2:00 PM88 °FPassing clouds.9 mph40%30.04 "HgN/A
1:30 PM88 °FPassing clouds.10 mph38%30.04 "HgN/A
1:00 PM86 °FPassing clouds.10 mph43%30.04 "HgN/A
12:30 PM84 °FPassing clouds.12 mph43%30.04 "HgN/A
12:00 PM84 °FPassing clouds.12 mph43%30.04 "HgN/A
11:30 AM82 °FPassing clouds.10 mph45%30.07 "HgN/A
11:00 AM81 °FPassing clouds.8 mph48%30.07 "HgN/A
10:30 AM77 °FPassing clouds.5 mph54%30.07 "HgN/A
10:00 AM75 °FPassing clouds.7 mph57%30.07 "HgN/A
9:30 AM73 °FPassing clouds.5 mph65%30.07 "HgN/A
9:00 AM72 °FPassing clouds.3 mph69%30.07 "HgN/A
8:30 AM68 °FClear.2 mph88%30.07 "Hg10 mi
8:00 AM64 °FClear.3 mph94%30.07 "Hg10 mi
7:30 AM63 °FClear.N/A94%30.04 "Hg4 mi
7:00 AM63 °FClear.3 mph94%30.04 "Hg6 mi
6:30 AM61 °FClear.2 mph100%30.04 "Hg10 mi
6:00 AM59 °FFog.3 mph100%30.04 "Hg3 mi
5:30 AM61 °FLight fog.3 mph94%30.04 "Hg4 mi
5:00 AM63 °FFog.2 mph94%30.04 "Hg4 mi
4:30 AM63 °FClear.No wind94%30.04 "HgN/A
4:00 AM66 °FClear.No wind94%30.04 "Hg10 mi
3:30 AM66 °FClear.3 mph94%30.04 "Hg10 mi
3:00 AM64 °FClear.5 mph100%30.04 "Hg10 mi
2:30 AM66 °FClear.3 mph94%30.04 "Hg10 mi
2:00 AM66 °FClear.5 mph88%30.04 "Hg10 mi
Weather by CustomWeather, © 2016

See weather overviewHow to use our weather pages